"Time","Temp","Dewpoint","Humidity","Pressure","Direction","Speed","Gust","Precip","PrecipRate"
"00:04:57","63.8","62.6","96","29.95","330","0","0","0.00","0.00"
"00:09:48","63.8","62.6","96","29.95","330","0","0","0.00","0.00"
"00:14:56","63.6","62.4","96","29.95","330","0","0","0.00","0.00"
"00:19:56","63.6","62.4","96","29.95","330","0","0","0.00","0.00"
"00:24:56","63.5","62.3","96","29.95","330","0","0","0.00","0.00"
"00:29:56","63.4","62.2","96","29.95","330","0","0","0.00","0.00"
"00:34:56","63.4","62.2","96","29.95","330","0","0","0.00","0.00"
"00:39:57","63.4","62.2","96","29.95","330","0","0","0.00","0.00"
"00:44:57","63.4","62.2","96","29.95","330","0","0","0.00","0.00"
"00:49:57","63.4","62.2","96","29.95","330","0","0","0.00","0.00"
"00:54:57","63.4","62.2","96","29.95","330","0","0","0.00","0.00"
"00:59:56","63.4","62.2","96","29.96","330","0","0","0.00","0.00"
"01:04:59","63.4","62.2","96","29.96","330","0","0","0.00","0.00"
"01:09:59","63.4","62.2","96","29.96","330","0","0","0.00","0.00"
"01:14:56","63.4","62.2","96","29.96","330","0","0","0.00","0.00"
"01:19:56","63.4","62.2","96","29.96","330","0.1","1.2","0.00","0.00"
"01:24:56","63.4","62.2","96","29.96","330","0","0","0.00","0.00"
"01:29:56","63.4","62.2","96","29.96","330","0","0","0.00","0.00"
"01:34:56","63.3","62.1","96","29.96","330","0","1.2","0.00","0.00"
"01:39:57","63.2","62","96","29.96","330","0","0","0.00","0.00"
"01:44:58","63.1","61.9","96","29.96","330","0","0","0.00","0.00"
"01:49:58","63","61.8","96","29.96","330","0","0","0.00","0.00"
"01:54:58","62.9","61.7","96","29.96","330","0","0","0.00","0.00"
"01:59:57","62.9","61.7","96","29.96","330","0","0","0.00","0.00"
"02:04:56","62.8","61.6","96","29.96","330","0","0","0.00","0.00"
"02:09:56","62.8","61.6","96","29.96","330","0","0","0.00","0.00"
"02:14:57","62.8","61.8","96.8","29.96","330","0","0","0.00","0.00"
"02:19:58","62.7","61.7","96.5","29.96","330","0","0","0.00","0.00"
"02:24:58","62.7","61.7","96.9","29.96","330","0","0","0.00","0.00"
"02:29:57","62.6","61.7","97","29.96","330","0","0","0.00","0.00"
"02:34:57","62.6","61.7","97","29.95","330","0","0","0.00","0.00"
"02:39:59","62.5","61.6","97","29.95","330","0","0","0.00","0.00"
"02:44:58","62.5","61.6","97","29.96","330","0","0","0.00","0.00"
"02:49:58","62.5","61.4","96.5","29.96","330","0","0","0.00","0.00"
"02:54:58","62.4","61.3","96.3","29.96","330","0","0","0.00","0.00"
"02:59:58","62.3","61.3","96.7","29.96","330","0","0","0.00","0.00"
"03:04:58","62.3","61.1","96.1","29.96","330","0","0","0.00","0.00"
"03:09:58","62.2","61.1","96.4","29.96","330","0","0","0.00","0.00"
"03:14:59","62.1","61.2","97","29.96","330","0","0","0.00","0.00"
"03:19:59","62","61.1","97","29.96","330","0","0","0.00","0.00"
"03:24:27","62","61.1","97","29.96","330","0","0","0.00","0.00"
"03:29:59","62","61.1","97","29.96","330","0","0","0.00","0.00"
"03:34:59","61.9","61","97","29.96","330","0","0","0.00","0.00"
"03:39:56","61.8","60.9","97","29.96","330","0","0","0.00","0.00"
"03:44:56","61.7","60.8","97","29.97","330","0","0","0.00","0.00"
"03:49:56","61.7","60.8","97","29.97","330","0","0","0.00","0.00"
"03:54:56","61.6","60.7","97","29.97","330","0","0","0.00","0.00"
"03:59:56","61.6","60.7","97","29.97","330","0","0","0.00","0.00"
"04:04:59","61.5","60.6","97","29.97","330","0","1.2","0.00","0.00"
"04:09:59","61.6","60.7","97","29.97","330","0","0","0.00","0.00"
"04:14:56","61.7","60.8","97","29.97","330","0","0","0.00","0.00"
"04:19:59","61.8","60.9","97","29.97","330","0.1","1.2","0.00","0.00"
"04:24:56","61.7","60.8","97","29.97","330","0","0","0.00","0.00"
"04:29:59","61.7","60.8","97","29.97","330","0","0","0.00","0.00"
"04:34:59","61.6","60.7","97","29.97","330","0","0","0.00","0.00"
"04:39:56","61.5","60.6","97","29.97","330","0.3","2.4","0.00","0.00"
"04:44:56","61.5","60.6","97","29.97","330","0","1.2","0.00","0.00"
"04:49:56","61.4","60.5","97","29.97","330","0","1.2","0.00","0.00"
"04:54:56","61.4","60.5","97","29.97","330","0","0","0.00","0.00"
"04:59:56","61.3","60.4","97","29.98","330","0","0","0.00","0.00"
"05:04:59","61.2","60.3","97","29.98","330","0","0","0.00","0.00"
"05:09:58","61.2","60.3","97","29.98","330","0","0","0.00","0.00"
"05:14:56","61.1","60.2","97","29.98","330","0","0","0.00","0.00"
"05:19:56","61.1","60.2","97","29.98","330","0","0","0.00","0.00"
"05:24:56","61.1","60.2","97","29.98","330","0","0","0.00","0.00"
"05:29:56","61.1","60.2","97","29.99","330","0","0","0.00","0.00"
"05:34:59","61.2","60.3","97","29.99","330","0","0","0.00","0.00"
"05:39:57","61.2","60.3","97","29.99","330","0","0","0.00","0.00"
"05:44:57","61.1","60.2","97","29.99","330","0","0","0.00","0.00"
"05:49:57","61.1","60.2","97","29.99","330","0","0","0.00","0.00"
"05:54:57","61.1","60.2","97","29.99","330","0","0","0.00","0.00"
"05:59:24","61.1","60.2","97","29.99","330","0","0","0.00","0.00"
"06:04:59","61","60.1","97","29.99","330","0","0","0.00","0.00"
"06:09:56","60.9","60","97","29.99","330","0","0","0.00","0.00"
"06:14:57","60.9","60","97","29.99","330","0","0","0.00","0.00"
"06:19:37","60.9","60","97","29.99","330","0","0","0.00","0.00"
"06:24:58","60.8","59.9","97","29.99","330","0","0","0.00","0.00"
"06:29:58","60.9","60.2","97.7","30.00","330","0.5","3.6","0.00","0.00"
"06:34:57","61","60.4","98","30.00","331","0.6","2.4","0.00","0.00"
"06:39:59","61","60.4","98","30.00","331","0.2","2.3","0.00","0.00"
"06:44:58","61.1","60.4","97.7","30.00","331","0.2","1.2","0.00","0.00"
"06:49:58","61.1","60.2","97.1","30.00","331","0.2","1.2","0.00","0.00"
"06:54:57","61.2","60.6","98","30.00","331","0.4","2.4","0.00","0.00"
"06:59:57","61.3","60.7","98","30.01","331","0.6","2.4","0.00","0.00"
"07:04:56","61.4","60.8","98","30.01","331","0.5","2.4","0.00","0.00"
"07:09:59","61.5","60.9","98","30.01","331","0.4","2.4","0.00","0.00"
"07:14:56","61.6","61","98","30.02","331","0.3","1.2","0.00","0.00"
"07:19:59","61.8","61.2","98","30.02","331","0.2","1.2","0.00","0.00"
"07:24:59","62.3","61.7","98","30.02","332","1.2","3.6","0.00","0.00"
"07:29:58","62.6","62","98","30.02","333","0.2","2.3","0.00","0.00"
"07:34:57","62.9","62.3","98","30.02","333","1.4","4.8","0.00","0.00"
"07:39:58","63.1","62.5","98","30.02","334","0.1","2.4","0.00","0.00"
"07:44:58","63.5","62.9","98","30.03","334","0.1","1.2","0.00","0.00"
"07:49:57","63.9","63.2","97.5","30.03","334","0","0","0.00","0.00"
"07:54:56","64.2","63.3","97","30.03","334","0.1","1.2","0.00","0.00"
"07:59:56","64.5","63.6","97","30.04","334","0.1","2.4","0.00","0.00"
"08:04:59","64.8","63.8","96.8","30.04","334","0.2","2.3","0.00","0.00"
"08:09:58","65.4","64.3","96.4","30.04","334","0.1","1.2","0.00","0.00"
"08:14:59","65.9","64.4","95.3","30.04","334","0.6","3.6","0.00","0.00"
"08:19:58","66.1","64.4","94.1","30.04","334","1.1","4.8","0.00","0.00"
"08:24:58","66.4","64.6","94","30.04","334","0","1.2","0.00","0.00"
"08:29:57","66.7","64.7","93.5","30.05","334","0.4","2.4","0.00","0.00"
"08:34:57","67","65","93.2","30.05","334","0.1","1.2","0.00","0.00"
"08:39:57","67.6","65.3","92.4","30.05","334","0.2","2.4","0.00","0.00"
"08:44:57","67.8","65.1","91","30.05","334","0.2","1.2","0.00","0.00"
"08:49:56","68","65.5","91.5","30.05","334","0.5","4.8","0.00","0.00"
"08:54:56","68.1","65.3","90.5","30.05","334","1.3","4.8","0.00","0.00"
"08:59:59","68.3","65.4","90.5","30.06","334","0.4","3.5","0.00","0.00"
"09:04:58","68.5","65.5","90.4","30.06","334","0.5","3.6","0.00","0.00"
"09:09:57","68.8","65.9","90.4","30.06","334","0.4","2.4","0.00","0.00"
"09:14:59","69.3","66.1","89.7","30.06","334","0.6","3.6","0.00","0.00"
"09:19:58","69.7","66.1","88.6","30.06","334","0.9","2.4","0.00","0.00"
"09:24:57","70.1","66.2","87.5","30.06","334","0.4","3.6","0.00","0.00"
"09:29:57","70.5","66.3","86.5","30.06","334","0","1.2","0.00","0.00"
"09:34:56","71.1","66.6","85.7","30.06","334","0.7","3.6","0.00","0.00"
"09:39:57","71.7","67.2","85.8","30.06","333","0.5","4.8","0.00","0.00"
"09:44:57","72.2","67","83.7","30.06","337","1.1","6","0.00","0.00"
"09:49:56","72.7","67.2","82.9","30.06","335","0.8","3.6","0.00","0.00"
"09:54:56","73.2","67.1","81.4","30.06","333","0.7","3.6","0.00","0.00"
"09:59:59","73.6","67.4","80.9","30.06","333","1.2","4.8","0.00","0.00"
"10:04:57","74.3","68.1","81","30.06","333","0.1","2.4","0.00","0.00"
"10:09:57","75.1","68.2","79.2","30.06","333","0","0","0.00","0.00"
"10:14:58","75.4","67.7","77.2","30.07","333","0.2","2.4","0.00","0.00"
"10:19:58","75.5","67.9","77.1","30.07","332","2.2","6","0.00","0.00"
"10:24:57","75.5","67.9","77.4","30.07","334","1.8","7.2","0.00","0.00"
"10:29:56","75.9","68.1","76.8","30.07","333","0.7","3.6","0.00","0.00"
"10:34:59","76.5","67.6","74","30.07","326","0.6","2.4","0.00","0.00"
"10:39:56","77","67.3","72","30.07","323","1.4","3.6","0.00","0.00"
"10:44:59","77.5","67.8","72","30.07","355","0.6","3.6","0.00","0.00"
"10:49:58","77.7","67.4","70.7","30.07","360","1.3","6","0.00","0.00"
"10:54:57","77.7","67.4","70.8","30.07","45","0.7","4.8","0.00","0.00"
"10:59:57","77.9","67","69.4","30.07","342","1.6","6","0.00","0.00"
"11:04:59","78.2","66.5","67.5","30.07","336","0.5","2.4","0.00","0.00"
"11:09:59","78.6","66.4","66.3","30.07","51","0.9","3.6","0.00","0.00"
"11:14:59","78.3","65.6","64.8","30.07","114","1.8","4.8","0.00","0.00"
"11:19:59","77.8","66.1","67.5","30.07","104","0.1","2.4","0.00","0.00"
"11:24:58","77.8","66.2","67.6","30.07","98","0.9","2.4","0.00","0.00"
"11:29:57","77.8","65.5","66","30.07","9","0.7","4.8","0.00","0.00"
"11:34:56","77.4","65.4","66.6","30.07","12","1.7","4.8","0.00","0.00"
"11:39:57","77.8","66.3","67.7","30.07","329","1.3","4.8","0.00","0.00"
"11:44:56","78.5","66.1","65.8","30.07","114","0.9","6","0.00","0.00"
"11:49:57","78.8","65.5","63.7","30.07","131","2","4.8","0.00","0.00"
"11:54:57","79.2","66.2","64.5","30.07","131","1.1","4.6","0.00","0.00"
"11:59:58","79.6","65.8","62.8","30.07","123","2.9","12","0.00","0.00"
"12:04:58","79.6","65.7","62.5","30.06","122","1.7","5.8","0.00","0.00"
"12:09:58","80","64.9","60.1","30.06","128","2.8","6","0.00","0.00"
"12:14:57","80.2","65.7","61.3","30.06","107","0.4","4.6","0.00","0.00"
"12:19:57","80.3","65.7","61.3","30.06","81","1.3","3.6","0.00","0.00"
"12:24:58","80.2","66.2","62.3","30.06","62","1.2","2.4","0.00","0.00"
"12:29:59","80.4","65.5","60.5","30.06","49","0.8","4.8","0.00","0.00"
"12:34:59","80.3","65.4","60.7","30.05","35","0.7","4.6","0.00","0.00"
"12:39:57","80","65.2","60.7","30.05","30","0.1","3.6","0.00","0.00"
"12:44:58","79.9","65.2","61","30.06","25","1.1","4.8","0.00","0.00"
"12:49:56","79.7","65.2","61.3","30.06","352","1.7","4.8","0.00","0.00"
"12:54:56","80.1","65.3","60.7","30.06","125","2.1","8.4","0.00","0.00"
"12:59:56","80.2","64.3","58.5","30.06","128","1.4","4.8","0.00","0.00"
"13:04:56","79.7","64.3","59.6","30.06","131","1.8","8.4","0.00","0.00"
"13:09:57","79.6","64.8","60.6","30.06","126","2.2","7.2","0.00","0.00"
"13:14:59","79.6","63.9","58.7","30.06","123","3.4","8.4","0.00","0.00"
"13:19:56","79.9","65","60.5","30.05","126","3.7","8.4","0.00","0.00"
"13:24:56","80.2","65.6","61.1","30.05","123","2.8","8.1","0.00","0.00"
"13:29:57","80.7","66.6","62.4","30.06","119","1.1","5.8","0.00","0.00"
"13:34:57","81","66.1","60.5","30.06","111","2.2","6","0.00","0.00"
"13:39:59","81.2","66.2","60.4","30.06","105","2","6","0.00","0.00"
"13:44:56","81.8","67","60.9","30.06","91","0.8","4.8","0.00","0.00"
"13:49:56","82.3","66.5","58.9","30.05","135","2.1","7.2","0.00","0.00"
"13:54:57","82.4","66","58","30.05","140","1.3","4.8","0.00","0.00"
"13:59:58","82.3","67","60.1","30.05","140","0.9","3.6","0.00","0.00"
"14:04:58","82","65.8","58","30.05","136","2","8.4","0.00","0.00"
"14:09:58","81.7","65.7","58.5","30.05","121","2.3","8.1","0.00","0.00"
"14:14:56","81.8","65.9","58.7","30.06","124","2","7.2","0.00","0.00"
"14:19:57","81.6","65.9","58.8","30.06","126","0.7","2.4","0.00","0.00"
"14:24:58","81.4","64.6","56.8","30.06","113","0.8","6","0.00","0.00"
"14:29:58","81.2","65","57.9","30.06","119","2.2","6","0.00","0.00"
"14:34:59","81.2","65.8","59.5","30.05","125","1.4","6","0.00","0.00"
"14:39:57","81.3","66.5","60.9","30.05","125","2.1","4.8","0.00","0.00"
"14:44:58","81.5","65.7","58.9","30.05","127","2.1","4.8","0.00","0.00"
"14:49:59","81.7","65.4","57.7","30.05","126","2.1","6","0.00","0.00"
"14:54:59","81.8","64.7","56.3","30.05","113","1.5","7.2","0.00","0.00"
"14:59:56","81.9","65.1","56.9","30.05","116","1.4","6","0.00","0.00"
"15:04:59","82.2","65.4","57","30.05","121","1.6","4.8","0.00","0.00"
"15:09:56","81.9","64.2","55.2","30.05","115","1.6","4.8","0.00","0.00"
"15:14:58","81.9","65.5","57.6","30.05","56","1.1","4.8","0.00","0.00"
"15:19:59","82.4","66","57.7","30.04","74","1","4.6","0.00","0.00"
"15:24:56","82.9","66.6","58.1","30.04","346","0.7","3.6","0.00","0.00"
"15:29:56","82.9","63.8","52.6","30.04","98","2.7","8.4","0.00","0.00"
"15:34:57","82.7","63.4","52.4","30.04","122","1.4","4.6","0.00","0.00"
"15:39:59","82.7","65.1","55.5","30.04","124","1.1","6","0.00","0.00"
"15:44:56","83","65.4","55.5","30.04","123","0.8","3.6","0.00","0.00"
"15:49:57","83","64.6","53.9","30.04","132","1.7","6","0.00","0.00"
"15:54:57","82.3","64.5","55","30.04","141","0.4","4.8","0.00","0.00"
"15:59:58","82","64.4","55.4","30.04","141","1.6","4.8","0.00","0.00"
"16:04:58","82.4","65.9","57.5","30.04","141","0.5","2.4","0.00","0.00"
"16:09:59","82.6","64.4","54.2","30.04","119","1.7","13.2","0.00","0.00"
"16:14:57","82.3","64.4","54.8","30.04","130","1.1","7.2","0.00","0.00"
"16:19:58","81.9","63.9","54.4","30.04","141","1.7","6","0.00","0.00"
"16:24:58","81.9","64.3","55.4","30.04","131","1.5","6","0.00","0.00"
"16:29:59","81.8","63.2","53.3","30.05","130","2.3","5.8","0.00","0.00"
"16:34:59","81.9","63.8","54.4","30.05","130","1.1","3.6","0.00","0.00"
"16:39:58","81.9","63","52.9","30.05","121","1.8","8.4","0.00","0.00"
"16:44:58","81.8","62.8","52.7","30.05","118","1.8","5.8","0.00","0.00"
"16:49:59","81.8","62.2","51.5","30.05","120","1","7.2","0.00","0.00"
"16:54:59","81.8","62.3","51.7","30.05","41","0.8","6.9","0.00","0.00"
"16:59:56","81.8","62.9","52.8","30.05","70","0.3","2.4","0.00","0.00"
"17:04:56","82","63.5","53.6","30.05","72","0.7","3.6","0.00","0.00"
"17:09:56","82.3","63.4","52.8","30.05","112","1.6","4.8","0.00","0.00"
"17:14:58","82.3","61.8","50.2","30.05","115","1.4","4.8","0.00","0.00"
"17:19:59","81.8","60.7","48.9","30.05","115","0.8","4.6","0.00","0.00"
"17:24:56","81.4","60.6","49.4","30.05","115","0.7","2.4","0.00","0.00"
"17:29:56","81.3","60.4","49.2","30.05","115","0.5","2.4","0.00","0.00"
"17:34:57","81.2","60.7","49.8","30.05","115","0.9","3.6","0.00","0.00"
"17:39:59","81.3","60.1","48.7","30.05","103","1.1","4.8","0.00","0.00"
"17:44:59","81.2","59.9","48.5","30.06","34","0.8","3.5","0.00","0.00"
"17:49:56","81.2","59.5","47.8","30.06","36","0.6","1.2","0.00","0.00"
"17:54:57","81","59","47.2","30.06","36","1.2","3.6","0.00","0.00"
"17:59:58","80.9","59.8","48.9","30.06","38","0.6","2.4","0.00","0.00"
"18:04:58","80.8","57.2","44.5","30.06","39","0.5","2.4","0.00","0.00"
"18:09:58","80.5","56.1","43.3","30.06","33","0.7","4.8","0.00","0.00"
"18:14:56","80.3","55.7","42.9","30.06","53","0.5","4.6","0.00","0.00"
"18:19:57","80","55.7","43.3","30.06","53","0.4","2.3","0.00","0.00"
"18:24:59","79.7","55.8","43.8","30.06","53","0","0","0.00","0.00"
"18:29:59","79.4","55.7","44.1","30.06","53","0.1","1.2","0.00","0.00"
"18:34:56","79.2","56","45","30.06","53","0.4","2.4","0.00","0.00"
"18:39:58","78.9","56.3","45.8","30.06","54","0.1","1.2","0.00","0.00"
"18:44:59","78.6","55.9","45.7","30.06","53","0.1","1.2","0.00","0.00"
"18:49:58","78.3","56.1","46.4","30.06","53","0.1","2.4","0.00","0.00"
"18:54:58","78.1","56.2","47","30.06","53","0","1.2","0.00","0.00"
"18:59:58","78","56.9","48.4","30.06","54","0","1.2","0.00","0.00"
"19:04:56","77.8","58","50.7","30.06","53","0.1","1.2","0.00","0.00"
"19:09:56","77.4","57.6","50.7","30.06","54","0","1.2","0.00","0.00"
"19:14:57","77","57.9","51.7","30.07","54","0","0","0.00","0.00"
"19:19:58","76.6","58.5","53.6","30.07","54","0","0","0.00","0.00"
"19:24:57","76","59.6","56.9","30.07","53","0.1","1.2","0.00","0.00"
"19:29:57","75.3","59.2","57.4","30.07","54","0","1.2","0.00","0.00"
"19:34:57","74.5","59.5","59.6","30.07","54","0","0","0.00","0.00"
"19:39:58","73.5","59.4","61.4","30.07","53","0","0","0.00","0.00"
"19:44:58","72.6","59.1","62.5","30.08","54","0","0","0.00","0.00"
"19:49:59","71.9","59.5","65","30.08","54","0","0","0.00","0.00"
"19:54:58","71.1","60","67.9","30.08","54","0","0","0.00","0.00"
"19:59:58","70.3","60","69.8","30.08","54","0","0","0.00","0.00"
"20:04:57","69.8","59.8","70.7","30.08","54","0","0","0.00","0.00"
"20:09:56","69.3","59.7","71.7","30.08","54","0","0","0.00","0.00"
"20:14:57","68.9","59.8","72.6","30.09","53","0","0","0.00","0.00"
"20:19:58","68.7","60","73.9","30.09","54","0","0","0.00","0.00"
"20:24:58","68.3","59.7","74","30.09","54","0","0","0.00","0.00"
"20:29:57","67.9","59.6","74.8","30.10","53","0","0","0.00","0.00"
"20:34:57","67.8","59.9","75.9","30.10","53","0","0","0.00","0.00"
"20:39:58","67.7","59.7","75.3","30.10","54","0","0","0.00","0.00"
"20:44:58","67.7","59.5","75","30.11","54","0","0","0.00","0.00"
"20:49:58","67.4","59.6","76","30.11","53","0","0","0.00","0.00"
"20:54:58","67","59.6","77","30.11","54","0","0","0.00","0.00"
"20:59:58","66.7","59.9","78.7","30.11","54","0","0","0.00","0.00"
"21:04:57","66.4","59.9","79.5","30.11","53","0","0","0.00","0.00"
"21:09:56","66.2","60","80.5","30.11","53","0","0","0.00","0.00"
"21:14:57","66","60.1","81.2","30.12","54","0","0","0.00","0.00"
"21:19:57","65.8","60.2","82.1","30.12","53","0","1.2","0.00","0.00"
"21:24:57","65.7","60.2","82.5","30.12","53","0.2","1.2","0.00","0.00"
"21:29:57","65.4","60.1","83.2","30.12","53","0","0","0.00","0.00"
"21:34:57","65.2","60.2","84","30.12","53","0","0","0.00","0.00"
"21:39:58","64.9","59.9","84","30.12","54","0","0","0.00","0.00"
"21:44:54","64.6","59.9","84.8","30.13","54","0","0","0.00","0.00"
"21:49:57","64.3","60","86","30.13","53","0","0","0.00","0.00"
"21:54:58","64","59.7","86","30.13","53","0","0","0.00","0.00"
"21:59:58","63.7","59.4","86","30.14","54","0","0","0.00","0.00"
"22:04:56","63.4","59.2","86.3","30.14","54","0","0","0.00","0.00"
"22:09:56","63.1","59.3","87.1","30.14","54","0","0","0.00","0.00"
"22:14:57","62.9","59.3","88","30.14","54","0","0","0.00","0.00"
"22:19:56","62.7","59.1","88","30.14","53","0","0","0.00","0.00"
"22:24:56","62.5","59.2","88.9","30.14","53","0","0","0.00","0.00"
"22:29:56","62.4","59.1","89","30.14","53","0","0","0.00","0.00"
"22:34:59","62.4","59.3","89.9","30.14","53","0","0","0.00","0.00"
"22:39:57","62.3","59","89","30.14","53","0","0","0.00","0.00"
"22:44:56","62.1","58.9","89.1","30.14","53","0","0","0.00","0.00"
"22:49:56","62","59","90","30.14","53","0","0","0.00","0.00"
"22:54:56","61.8","58.8","90","30.14","54","0","0","0.00","0.00"
"22:59:56","61.7","58.7","90.1","30.15","53","0","0","0.00","0.00"
"23:04:59","61.5","58.8","91","30.15","53","0","0","0.00","0.00"
"23:09:58","61.4","58.7","91","30.15","53","0","0","0.00","0.00"
"23:14:55","61.2","58.6","91","30.15","54","0","0","0.00","0.00"
"23:19:59","61.1","58.7","91.8","30.15","53","0","0","0.00","0.00"
"23:24:51","60.9","58.6","92","30.15","53","0","0","0.00","0.00"
"23:29:59","60.8","58.5","92","30.16","53","0","0","0.00","0.00"
"23:34:59","60.7","58.6","92.6","30.16","54","0","0","0.00","0.00"
"23:39:56","60.7","58.7","93","30.16","53","0","0","0.00","0.00"
"23:44:59","60.7","58.7","93","30.16","53","0","0","0.00","0.00"
"23:49:59","60.7","58.7","93","30.16","53","0","0","0.00","0.00"
"23:54:23","60.7","58.7","93","30.16","53","0","0","0.00","0.00"
